Tiempo cada hora Abasár

Hoy, 24 Junio, Jueves

Tiempo Temperatura Precipitaciones Viento Presión Humedad
00:00 +25°C° 0 mm 1 mps 741 mmHg 73%
01:00 +24°C° 0 mm 1 mps 741 mmHg 75%
02:00 +24°C° 0 mm 1 mps 741 mmHg 77%
03:00 +23°C° 0 mm 1 mps 741 mmHg 79%
04:00 +23°C° 0 mm 1 mps 741 mmHg 80%
05:00 +25°C° 0 mm 2 mps 741 mmHg 77%
06:00 +26°C° 0 mm 2 mps 741 mmHg 73%
07:00 +28°C° 0 mm 2 mps 741 mmHg 69%
08:00 +29°C° 0 mm 2 mps 741 mmHg 63%
09:00 +31°C° 0 mm 2 mps 741 mmHg 57%
10:00 +34°C° 0 mm 2 mps 741 mmHg 51%
11:00 +35°C° 0 mm 2 mps 741 mmHg 47%
12:00 +36°C° 0 mm 2 mps 741 mmHg 42%
13:00 +37°C° 0 mm 3 mps 741 mmHg 38%
14:00 +37°C° 0 mm 3 mps 740 mmHg 37%
15:00 +37°C° 0 mm 3 mps 740 mmHg 37%
16:00 +37°C° 0 mm 3 mps 740 mmHg 36%
17:00 +35°C° 0 mm 2 mps 740 mmHg 43%
18:00 +32°C° 0 mm 1 mps 739 mmHg 49%
19:00 +30°C° 0 mm 1 mps 739 mmHg 56%
20:00 +29°C° 0 mm 1 mps 739 mmHg 57%
21:00 +28°C° 0 mm 1 mps 739 mmHg 58%
22:00 +27°C° 0 mm 2 mps 739 mmHg 59%
23:00 +26°C° 0.1 mm 1 mps 739 mmHg 63%

Mañana, 25 Junio, Viernes

Tiempo Temperatura Precipitaciones Viento Presión Humedad
00:00 +25°C° 0.1 mm 1 mps 739 mmHg 67%
01:00 +24°C° 0.1 mm 1 mps 738 mmHg 72%
02:00 +23°C° 0.2 mm 1 mps 739 mmHg 74%
03:00 +22°C° 0.2 mm 1 mps 739 mmHg 76%
04:00 +22°C° 0.2 mm 1 mps 739 mmHg 78%
05:00 +23°C° 0 mm 2 mps 739 mmHg 77%
06:00 +24°C° 0 mm 2 mps 740 mmHg 76%
07:00 +25°C° 0 mm 2 mps 740 mmHg 76%
08:00 +26°C° 0 mm 2 mps 740 mmHg 69%
09:00 +28°C° 0 mm 3 mps 740 mmHg 63%
10:00 +30°C° 0 mm 3 mps 741 mmHg 56%
11:00 +30°C° 0 mm 3 mps 740 mmHg 53%
12:00 +31°C° 0 mm 3 mps 740 mmHg 49%
13:00 +33°C° 0 mm 4 mps 740 mmHg 46%
14:00 +33°C° 0 mm 4 mps 740 mmHg 46%
15:00 +32°C° 0 mm 4 mps 739 mmHg 45%
16:00 +32°C° 0 mm 4 mps 739 mmHg 45%
17:00 +29°C° 0 mm 3 mps 739 mmHg 51%
18:00 +27°C° 0 mm 3 mps 739 mmHg 57%
19:00 +25°C° 0 mm 3 mps 739 mmHg 64%
20:00 +24°C° 0 mm 3 mps 739 mmHg 63%
21:00 +24°C° 0 mm 3 mps 739 mmHg 63%
22:00 +22°C° 0 mm 4 mps 739 mmHg 63%
23:00 +21°C° 0.1 mm 3 mps 740 mmHg 71%

Pasado mañana, 26 Junio, Sábado

Tiempo Temperatura Precipitaciones Viento Presión Humedad
00:00 +19°C° 0.1 mm 3 mps 740 mmHg 78%
01:00 +18°C° 0.1 mm 2 mps 741 mmHg 86%
02:00 +18°C° 0 mm 2 mps 741 mmHg 87%
03:00 +17°C° 0 mm 2 mps 741 mmHg 89%
04:00 +17°C° 0 mm 2 mps 741 mmHg 90%
05:00 +18°C° 0.3 mm 2 mps 741 mmHg 86%
06:00 +19°C° 0.3 mm 2 mps 741 mmHg 82%
07:00 +21°C° 0.3 mm 2 mps 742 mmHg 78%
08:00 +23°C° 0 mm 2 mps 742 mmHg 71%
09:00 +25°C° 0 mm 1 mps 742 mmHg 64%
10:00 +27°C° 0 mm 1 mps 742 mmHg 56%
11:00 +27°C° 0.6 mm 1 mps 742 mmHg 56%
12:00 +27°C° 0.6 mm 1 mps 741 mmHg 56%
13:00 +28°C° 0.6 mm 1 mps 741 mmHg 56%
14:00 +27°C° 0.5 mm 2 mps 741 mmHg 58%
15:00 +27°C° 0.5 mm 2 mps 741 mmHg 60%
16:00 +26°C° 0.5 mm 3 mps 741 mmHg 62%
17:00 +25°C° 0.2 mm 2 mps 741 mmHg 69%
18:00 +23°C° 0.2 mm 2 mps 741 mmHg 76%
19:00 +22°C° 0.2 mm 1 mps 741 mmHg 82%
20:00 +21°C° 0 mm 1 mps 741 mmHg 83%
21:00 +20°C° 0 mm 1 mps 741 mmHg 83%
22:00 +19°C° 0 mm 1 mps 741 mmHg 84%
23:00 +19°C° 0 mm 1 mps 741 mmHg 83%

27 Junio, Domingo

Tiempo Temperatura Precipitaciones Viento Presión Humedad
00:00 +18°C° 0 mm 1 mps 742 mmHg 82%
01:00 +18°C° 0 mm 1 mps 742 mmHg 82%
02:00 +18°C° 0 mm 1 mps 742 mmHg 82%
03:00 +18°C° 0 mm 1 mps 742 mmHg 82%
04:00 +18°C° 0 mm 1 mps 742 mmHg 83%
05:00 +19°C° 0 mm 1 mps 742 mmHg 77%
06:00 +21°C° 0 mm 1 mps 742 mmHg 70%
07:00 +23°C° 0 mm 1 mps 742 mmHg 64%
08:00 +25°C° 0 mm 1 mps 742 mmHg 58%
09:00 +26°C° 0 mm 1 mps 742 mmHg 52%
10:00 +26°C° 0 mm 0 mps 742 mmHg 46%
11:00 +29°C° 0 mm 1 mps 742 mmHg 44%
12:00 +30°C° 0 mm 1 mps 742 mmHg 42%
13:00 +30°C° 0 mm 1 mps 742 mmHg 39%
14:00 +30°C° 0 mm 1 mps 742 mmHg 39%
15:00 +30°C° 0 mm 1 mps 741 mmHg 39%
16:00 +30°C° 0 mm 1 mps 741 mmHg 39%
17:00 +29°C° 0 mm 1 mps 741 mmHg 45%
18:00 +27°C° 0 mm 1 mps 741 mmHg 52%
19:00 +23°C° 0 mm 0 mps 741 mmHg 59%
20:00 +24°C° 0 mm 1 mps 741 mmHg 61%
21:00 +23°C° 0 mm 1 mps 741 mmHg 62%
22:00 +22°C° 0 mm 1 mps 742 mmHg 64%
23:00 +22°C° 0 mm 1 mps 742 mmHg 66%

28 Junio, Lunes

Tiempo Temperatura Precipitaciones Viento Presión Humedad
00:00 +21°C° 0 mm 1 mps 742 mmHg 67%
01:00 +20°C° 0 mm 1 mps 742 mmHg 69%
02:00 +20°C° 0 mm 1 mps 742 mmHg 71%
03:00 +20°C° 0 mm 1 mps 742 mmHg 72%
04:00 +19°C° 0 mm 1 mps 742 mmHg 74%
05:00 +21°C° 0 mm 1 mps 742 mmHg 69%
06:00 +23°C° 0 mm 1 mps 742 mmHg 65%
07:00 +25°C° 0 mm 1 mps 743 mmHg 60%
08:00 +26°C° 0 mm 1 mps 743 mmHg 55%
09:00 +28°C° 0 mm 1 mps 742 mmHg 51%
10:00 +29°C° 0 mm 2 mps 742 mmHg 46%
11:00 +30°C° 0 mm 2 mps 742 mmHg 42%
12:00 +31°C° 0 mm 2 mps 742 mmHg 39%
13:00 +32°C° 0 mm 1 mps 742 mmHg 36%
14:00 +32°C° 0 mm 1 mps 741 mmHg 35%
15:00 +32°C° 0 mm 1 mps 741 mmHg 35%
16:00 +32°C° 0 mm 1 mps 741 mmHg 34%
17:00 +31°C° 0 mm 1 mps 741 mmHg 40%
18:00 +29°C° 0 mm 1 mps 741 mmHg 46%
19:00 +27°C° 0 mm 1 mps 740 mmHg 53%
20:00 +26°C° 0 mm 1 mps 740 mmHg 55%
21:00 +25°C° 0 mm 2 mps 740 mmHg 56%
22:00 +23°C° 0 mm 2 mps 740 mmHg 58%
23:00 +23°C° 0 mm 2 mps 740 mmHg 61%

29 Junio, Martes

Tiempo Temperatura Precipitaciones Viento Presión Humedad
00:00 +21°C° 0 mm 2 mps 740 mmHg 63%
01:00 +21°C° 0 mm 2 mps 740 mmHg 66%
02:00 +21°C° 0 mm 1 mps 740 mmHg 67%
03:00 +21°C° 0 mm 1 mps 740 mmHg 69%
04:00 +20°C° 0 mm 1 mps 740 mmHg 71%
05:00 +21°C° 0 mm 2 mps 740 mmHg 66%
06:00 +24°C° 0 mm 2 mps 741 mmHg 62%
07:00 +26°C° 0 mm 2 mps 741 mmHg 58%
08:00 +28°C° 0 mm 2 mps 741 mmHg 52%
09:00 +30°C° 0 mm 2 mps 741 mmHg 47%
10:00 +31°C° 0 mm 3 mps 741 mmHg 41%
11:00 +33°C° 0 mm 3 mps 741 mmHg 38%
12:00 +35°C° 0 mm 3 mps 740 mmHg 35%
13:00 +36°C° 0 mm 3 mps 740 mmHg 33%
14:00 +36°C° 0 mm 2 mps 740 mmHg 32%
15:00 +36°C° 0 mm 2 mps 739 mmHg 31%
16:00 +37°C° 0 mm 2 mps 739 mmHg 31%
17:00 +35°C° 0 mm 2 mps 739 mmHg 37%
18:00 +33°C° 0 mm 3 mps 738 mmHg 44%
19:00 +30°C° 0 mm 3 mps 738 mmHg 51%
20:00 +28°C° 0.4 mm 3 mps 738 mmHg 58%
21:00 +26°C° 0.4 mm 2 mps 738 mmHg 65%
22:00 +24°C° 0.4 mm 2 mps 738 mmHg 72%
23:00 +23°C° 1.1 mm 2 mps 739 mmHg 76%
Mostrar más

Necesitamos Su Consentimiento

Meteoprog y nuestros Proveedores de Servicios pueden almacenar y acceder a sus datos personales como cookies, identificadores de dispositivo u otras tecnologías similares de su dispositivo y procesar dichos datos para personalizar contenido y anuncios, además de ofrecer funciones de redes sociales y analizar el tráfico.

  • Almacenar y/o acceder a información en su dispositivo

    Se puede almacenar o acceder a cookies, identificadores de dispositivo u otra información de su dispositivo para los fines anteriormente indicados.

  • Anuncios y contenido personalizados, medición de anuncios y contenido, percepciones del público, y desarrollo de productos

    Los anuncios y el contenido pueden personalizarse en base a su perfil. Se pueden añadir más datos para personalizar mejor los anuncios y contenidos. Se puede medir el rendimiento de los anuncios y contenidos. Se puede obtener la percepción sobre el público que ha visto los anuncios y contenidos. Dichos datos pueden usarse para desarrollar o mejorar la experiencia del usuario, sistemas y software.

Al hacer clic en ‘Estoy De Acuerdo’ usted permitirá el uso de las cookies, identificadores de dispositivo, balizas web u otras tecnologías similares indicadas. Su configuración puede cambiarse desde el navegador de su dispositivo.

Para ciertos fines, los intereses legítimos pueden ser considerados por encima del consentimiento. Puede leer más sobre ello en nuestra Política de Privacidad y Cookies.